Location: Oshawa
(43.9000°N, 78.8670°W)
Time: 03:27:38
(UTC-04:00)

Explorer 7 - Visible Passes

Search period start: 26 September 2017 00:00
Search period end: 06 October 2017 00:00
Orbit: 486 x 683 km, 50.3° (Epoch: 25 September)

Date Brightness Start Highest point End Pass type
(mag) Time Alt. Az. Time Alt. Az. Time Alt. Az.
02 Oct 9.6 05:56:29 10° SSE 05:57:39 11° SE 05:58:48 10° ESE visible
03 Oct 9.1 06:00:17 10° S 06:03:05 19° SE 06:05:50 10° E visible
04 Oct 8.3 06:05:07 10° SSW 06:08:35 30° SE 06:11:58 10° ENE visible
05 Oct 7.4 06:10:35 11° SW 06:14:09 50° SE 06:17:50 10° ENE visible
